Flag for Germany Weather past 2 weeks in Halle, Saxony-Anhalt, Germany

Now
59 °F

Sprinkles. Scattered clouds.


Feels Like: 56 °F
Forecast: 44 / 65 °F
Wind: 14 mph from Southwest

Location: Leipzig-Schkeuditz

Current Time: Apr 26, 2015 at 2:03:02 PM

Latest Report: Apr 26, 2015 at 1:20 PM


Visibility: N/A

Pressure: 29.77 "Hg

Humidity: 77%

Dew point: 52 °F

Location of HalleLocation

Historic Weather in Halle — Graph

°F

Halle temperature yesterday

Maximum temperature yesterday: 70 °F (at 12:50 PM)
Minimum temperature yesterday: 46 °F (at 4:20 AM)
Average temperature yesterday: 59 °F

Past Weeks' High & Low Weather Summary

 TemperatureHumidityPressure
High73 °F (Apr 15, 2:50 PM)100% (Apr 18, 6:50 AM)30.45 "Hg (Apr 18, 6:50 AM)
Low34 °F (Apr 18, 5:50 AM)23% (Apr 21, 3:50 PM)29.74 "Hg (Apr 25, 3:50 PM)
Average51 °F62%30.12 "Hg
* Reported Apr 11 12:20 PM — Apr 26 12:50 PM, Halle, Weather by CustomWeather, © 2015

Note: Actual official high and low records may vary slightly from our data, if they occured in-between our weather recording intervals... More about our weather records

Advertising

Halle weather history for previous 24 hours

 ConditionsComfort  
Time TempWeatherWind HumidityBarometerVisibility
12:50 PM
Sun, Apr 26
64 °FBroken clouds.13 mph60%29.74 "HgN/A
12:20 PM63 °FBroken clouds.12 mph64%29.77 "HgN/A
11:50 AM63 °FBroken clouds.12 mph64%29.77 "HgN/A
11:20 AM63 °FBroken clouds.13 mph64%29.77 "HgN/A
10:50 AM61 °FBroken clouds.12 mph68%29.77 "HgN/A
10:20 AM61 °FPartly sunny.9 mph72%29.77 "HgN/A
9:50 AM59 °FBroken clouds.8 mph77%29.77 "HgN/A
9:20 AM57 °FBroken clouds.7 mph77%29.77 "HgN/A
8:50 AM57 °FSunny.8 mph82%29.80 "Hg10 mi
8:20 AM55 °FSunny.7 mph88%29.80 "Hg10 mi
7:50 AM55 °FSunny.9 mph88%29.80 "Hg10 mi
7:20 AM54 °FSunny.8 mph88%29.80 "Hg10 mi
6:50 AM52 °FClear.8 mph94%29.80 "Hg10 mi
6:20 AM54 °FClear.8 mph88%29.77 "Hg10 mi
5:50 AM52 °FClear.10 mph94%29.77 "Hg10 mi
5:20 AM52 °FClear.9 mph94%29.77 "Hg10 mi
4:50 AM52 °FClear.10 mph94%29.77 "Hg10 mi
4:20 AM52 °FClear.13 mph94%29.80 "Hg10 mi
3:50 AM52 °FClear.13 mph94%29.80 "Hg10 mi
3:20 AM52 °FClear.12 mph94%29.80 "Hg10 mi
2:50 AM54 °FClear.10 mph88%29.77 "Hg10 mi
2:20 AM55 °FClear.12 mph82%29.77 "Hg10 mi
1:50 AM55 °FClear.10 mph82%29.77 "Hg10 mi
1:20 AM55 °FClear.14 mph82%29.77 "Hg10 mi
12:50 AM57 °FClear.15 mph77%29.77 "Hg10 mi
12:20 AM57 °FPassing clouds.9 mph77%29.77 "HgN/A
11:20 PM
Sat, Apr 25
57 °FLight rain. Passing clouds.13 mph77%29.77 "HgN/A
10:50 PM59 °FLight rain. Passing clouds.15 mph72%29.77 "HgN/A
10:20 PM57 °FPassing clouds.9 mph72%29.77 "HgN/A
9:50 PM57 °FClear.8 mph72%29.77 "Hg10 mi
9:20 PM59 °FSunny.7 mph68%29.77 "Hg10 mi
8:50 PM59 °FLight rain. Mostly cloudy.9 mph68%29.77 "HgN/A
8:20 PM61 °FLight rain. Clear.7 mph59%29.77 "HgN/A
7:50 PM63 °FSunny.5 mph52%29.74 "Hg10 mi
7:20 PM63 °FSunny.5 mph52%29.74 "Hg10 mi
6:50 PM64 °FSunny.7 mph49%29.74 "Hg10 mi
6:20 PM64 °FSunny.9 mph46%29.74 "Hg10 mi
5:50 PM64 °FSunny.12 mph46%29.77 "Hg10 mi
5:20 PM64 °FSunny.15 mph43%29.77 "Hg10 mi
4:50 PM64 °FSunny.18 mph40%29.74 "Hg10 mi
4:20 PM68 °FSunny.16 mph33%29.74 "Hg10 mi
3:50 PM68 °FSunny.14 mph33%29.74 "Hg10 mi
3:20 PM68 °FSunny.10 mph33%29.77 "Hg10 mi
2:50 PM68 °FSunny.15 mph33%29.77 "Hg10 mi
2:20 PM70 °FSunny.12 mph33%29.77 "Hg10 mi
Weather by CustomWeather, © 2015

See weather overviewHow to use our weather pages